EW5925 Weather Reports


time (UTC)temp
F
wind
direction
speed
knots
gust
knots
rain 1hr
in
rain 24hr
in
rain mn
in
humidity
%
barometer
mb
20260506143521 65 130 0.0 0.0 0.00 0.00 0.00 91 1016.2
20260506142956 65 130 0.0 0.0 0.00 0.00 0.00 91 1016.5
20260506142653 65 129 0.0 0.9 0.00 0.00 0.00 91 1016.6
20260506141918 65 129 0.0 0.9 0.00 0.00 0.00 91 1016.6
20260506141637 65 129 0.0 1.7 0.00 0.00 0.00 90 1016.7
20260506140854 65 129 0.0 1.7 0.00 0.00 0.00 90 1016.6
20260506140342 65 129 0.0 1.7 0.00 0.00 0.00 90 1016.6
20260506135840 65 130 0.0 1.7 0.00 0.00 0.00 90 1016.6
20260506135340 65 130 0.0 1.7 0.00 0.00 0.00 89 1016.6
20260506134839 65 130 0.0 1.7 0.00 0.00 0.00 89 1016.5
20260506134336 66 130 0.0 1.7 0.00 0.00 0.00 89 1016.6
20260506133834 66 130 0.0 0.0 0.00 0.00 0.00 89 1016.6
20260506133336 66 130 0.0 0.0 0.00 0.00 0.00 89 1016.7
20260506132832 66 130 0.0 0.0 0.00 0.00 0.00 89 1016.7
20260506132330 66 130 0.0 0.0 0.00 0.00 0.00 89 1016.7
20260506131828 66 130 0.0 0.0 0.00 0.00 0.00 89 1016.7
20260506131330 66 130 0.0 0.0 0.00 0.00 0.00 88 1016.8
20260506131047 66 130 0.0 0.0 0.00 0.00 0.00 88 1016.9
20260506130326 67 130 0.0 0.0 0.00 0.00 0.00 88 1016.9
20260506125825 67 130 0.0 0.0 0.00 0.00 0.00 88 1016.9
20260506125551 67 130 0.0 0.0 0.00 0.00 0.00 88 1016.9
20260506124800 67 130 0.0 0.0 0.00 0.00 0.00 88 1017.0
20260506124232 67 130 0.0 0.0 0.00 0.00 0.00 88 1017.0
20260506123705 67 130 0.0 0.9 0.00 0.00 0.00 88 1017.1
20260506123200 67 129 0.0 0.9 0.00 0.00 0.00 88 1017.2
20260506122650 67 130 0.0 1.7 0.00 0.00 0.00 88 1017.2
20260506122125 67 130 0.0 1.7 0.00 0.00 0.00 88 1016.9
20260506121615 67 130 0.0 0.9 0.00 0.00 0.00 88 1016.9
20260506121114 68 130 0.0 1.7 0.00 0.00 0.00 88 1017.0
20260506120549 68 130 0.0 1.7 0.00 0.00 0.00 88 1017.2
20260506120028 68 130 0.0 1.7 0.00 0.00 0.00 88 1017.2
20260506115458 68 129 0.9 1.7 0.00 0.00 0.00 88 1017.2
20260506114954 68 129 0.9 2.6 0.00 0.00 0.00 88 1017.2
20260506114453 68 129 0.9 2.6 0.00 0.00 0.00 89 1017.3
20260506114213 68 130 0.9 1.7 0.00 0.00 0.00 89 1017.4
20260506113721 68 130 0.9 1.7 0.00 0.00 0.00 88 1017.4
20260506113213 68 130 0.9 1.7 0.00 0.00 0.00 88 1017.5
20260506112447 68 130 0.9 1.7 0.00 0.00 0.00 88 1017.5
20260506112405 68 130 0.9 3.5 0.00 0.00 0.00 88 1017.5
20260506112033 68 129 0.9 1.7 0.00 0.00 0.00 88 1017.6
20260506110938 68 130 1.7 3.5 0.00 0.00 0.00 88 1017.4
20260506110435 68 130 1.7 3.5 0.00 0.00 0.00 89 1017.4
20260506105934 68 130 1.7 2.6 0.00 0.00 0.00 89 1017.4
20260506105658 68 130 0.9 3.5 0.00 0.00 0.00 89 1017.4
20260506104934 68 130 0.9 3.5 0.00 0.00 0.00 89 1017.5
20260506104406 68 130 1.7 3.5 0.00 0.00 0.00 89 1017.5
20260506103840 68 146 1.7 3.5 0.00 0.00 0.00 89 1017.5
20260506103534 68 124 0.9 2.6 0.00 0.00 0.00 89 1017.5
20260506102745 68 118 1.7 3.5 0.00 0.00 0.00 89 1017.6
20260506102216 68 118 1.7 4.3 0.00 0.00 0.00 88 1017.5
20260506101650 68 118 1.7 4.3 0.00 0.00 0.00 88 1017.5
20260506101133 68 118 0.9 2.6 0.00 0.00 0.00 88 1017.6
20260506100634 68 118 0.9 2.6 0.00 0.00 0.00 88 1017.6
20260506100129 68 118 0.0 2.6 0.00 0.00 0.00 88 1017.6
20260506095617 68 118 0.0 0.0 0.00 0.00 0.00 88 1017.6
20260506095059 68 118 0.0 0.0 0.00 0.00 0.00 88 1017.6
20260506094600 68 118 0.0 0.9 0.00 0.00 0.00 87 1017.5
20260506094247 68 118 0.0 0.9 0.00 0.00 0.00 87 1017.5
20260506093514 68 118 0.0 1.7 0.00 0.00 0.00 87 1017.4
20260506093013 68 118 0.9 2.6 0.00 0.00 0.00 86 1017.5
20260506092446 68 118 0.9 2.6 0.00 0.00 0.00 86 1017.4
20260506092209 68 118 0.0 1.7 0.00 0.00 0.00 86 1017.5
20260506091704 69 118 0.0 0.9 0.00 0.00 0.00 86 1017.5
20260506090941 69 118 0.0 0.9 0.00 0.00 0.00 86 1017.4
20260506090440 69 118 0.9 1.7 0.00 0.00 0.00 86 1017.3
20260506085940 69 118 0.9 2.6 0.00 0.00 0.00 86 1017.2
20260506085438 69 118 1.7 3.5 0.00 0.00 0.00 86 1017.1
20260506084936 69 118 1.7 6.1 0.00 0.00 0.00 86 1017.1
20260506084435 69 118 1.7 6.1 0.00 0.00 0.00 86 1017.0
20260506083938 69 118 1.7 6.1 0.00 0.00 0.00 86 1017.0
20260506083429 69 118 2.6 6.1 0.00 0.00 0.00 85 1016.9
20260506083147 69 114 1.7 4.3 0.00 0.00 0.00 85 1016.8
20260506082427 69 109 2.6 6.1 0.00 0.00 0.00 85 1016.7
20260506081928 70 109 2.6 6.1 0.00 0.00 0.00 85 1016.7
20260506081358 70 106 1.7 6.1 0.00 0.00 0.00 84 1016.6
20260506080840 70 116 1.7 4.3 0.00 0.00 0.00 84 1016.6
20260506080341 70 116 1.7 4.3 0.00 0.00 0.00 84 1016.5
20260506072730 71 114 2.6 7.8 0.00 0.00 0.00 82 1016.1
20260506072227 71 117 2.6 6.1 0.00 0.00 0.00 82 1016.1
20260506071727 71 129 2.6 7.8 0.00 0.00 0.00 82 1016.0
20260506071227 72 118 2.6 7.8 0.00 0.00 0.00 81 1015.9
20260506070726 72 119 2.6 6.1 0.00 0.00 0.00 81 1015.8
20260506070225 72 122 1.7 6.1 0.00 0.00 0.00 81 1015.8
20260506062119 74 115 3.5 7.0 0.00 0.00 0.00 78 1015.6
20260506061552 74 118 3.5 7.0 0.00 0.00 0.00 77 1015.6
20260506061250 74 114 3.5 8.7 0.00 0.00 0.00 77 1015.7
20260506060535 75 116 3.5 8.7 0.00 0.00 0.00 77 1015.7
20260506051001 76 133 3.5 7.8 0.00 0.00 0.00 74 1015.6
20260506050500 76 135 3.5 9.6 0.00 0.00 0.00 74 1015.6
20260506045001 77 122 4.3 10.4 0.00 0.00 0.00 74 1015.6
20260506044445 77 120 3.5 11.3 0.00 0.00 0.00 74 1015.6
20260506043946 77 108 3.5 7.8 0.00 0.00 0.00 74 1015.6
20260506043419 77 122 3.5 8.7 0.00 0.00 0.00 74 1015.6
20260506042920 77 117 3.5 8.7 0.00 0.00 0.00 73 1015.6
20260506042419 77 130 3.5 11.3 0.00 0.00 0.00 74 1015.6
20260506041915 77 109 4.3 11.3 0.00 0.00 0.00 73 1015.6
20260506041415 77 164 4.3 7.8 0.00 0.00 0.00 74 1015.6
20260506040928 76 119 4.3 9.6 0.00 0.00 0.00 75 1015.6
20260506040414 76 199 5.2 9.6 0.00 0.00 0.00 75 1015.7
20260506035911 76 123 5.2 9.6 0.00 0.00 0.00 75 1015.7
20260506035411 76 86 5.2 9.6 0.00 0.00 0.00 75 1015.8
20260506034907 76 130 5.2 9.6 0.00 0.00 0.00 73 1015.7
20260506034406 76 124 3.5 9.6 0.00 0.00 0.00 74 1015.8
20260506033904 77 122 2.6 7.0 0.00 0.00 0.00 73 1015.8
20260506033404 77 146 2.6 7.0 0.00 0.00 0.00 73 1015.8
20260506032900 77 118 2.6 7.0 0.00 0.00 0.00 73 1015.9
20260506032403 77 124 2.6 7.0 0.00 0.00 0.00 73 1015.9
20260506031854 77 118 3.5 7.0 0.00 0.00 0.00 73 1016.0
20260506031351 77 128 3.5 9.6 0.00 0.00 0.00 72 1016.0
20260506030850 77 137 3.5 9.6 0.00 0.00 0.00 71 1016.0
20260506030347 78 129 4.3 9.6 0.00 0.00 0.00 70 1016.0
20260506025846 78 161 3.5 9.6 0.00 0.00 0.00 69 1016.0
20260506025345 79 133 2.6 8.7 0.00 0.00 0.00 69 1016.0
20260506025102 79 112 2.6 7.8 0.00 0.00 0.00 69 1016.0
20260506024345 79 144 3.5 7.8 0.00 0.00 0.00 70 1016.0
20260506023835 79 141 4.3 10.4 0.00 0.00 0.00 70 1016.1
20260506023557 78 124 4.3 10.4 0.00 0.00 0.00 71 1016.1
20260506022834 78 132 3.5 7.8 0.00 0.00 0.00 73 1016.1
20260506022336 77 128 2.6 7.0 0.00 0.00 0.00 73 1016.2
20260506021807 76 137 4.3 9.6 0.00 0.00 0.00 73 1016.3
20260506021251 77 124 3.5 9.6 0.00 0.00 0.00 73 1016.5
20260506020754 77 123 2.6 7.0 0.00 0.00 0.00 73 1016.6
20260506020446 77 144 2.6 7.0 0.00 0.00 0.00 72 1016.7
20260506015659 78 108 2.6 7.8 0.00 0.00 0.00 73 1016.7
20260506015135 78 175 2.6 7.8 0.00 0.00 0.00 72 1016.8
20260506014607 78 125 3.5 7.8 0.00 0.00 0.00 71 1016.8
20260506014043 79 109 3.5 8.7 0.00 0.00 0.00 70 1016.9
20260506013523 79 126 2.6 8.7 0.00 0.00 0.00 70 1016.9
20260506013247 79 122 2.6 7.0 0.00 0.00 0.00 71 1016.8
20260506012456 78 119 2.6 6.1 0.00 0.00 0.00 71 1016.8
20260506011929 78 143 1.7 4.3 0.00 0.00 0.00 72 1017.0
20260506011401 78 129 1.7 12.2 0.00 0.00 0.00 72 1017.0
20260506011058 78 112 3.5 12.2 0.00 0.00 0.00 72 1017.1
20260506010307 78 126 4.3 12.2 0.00 0.00 0.00 72 1017.2
20260506005741 78 112 3.5 8.7 0.00 0.00 0.00 73 1017.2
20260506005446 78 99 2.6 7.8 0.00 0.00 0.00 72 1017.3
20260506004655 78 93 2.6 7.0 0.00 0.00 0.00 72 1017.5
20260506004129 78 112 2.6 8.7 0.00 0.00 0.00 72 1017.4
20260506003604 78 139 2.6 8.7 0.00 0.00 0.00 72 1017.4
20260506003040 78 108 3.5 8.7 0.00 0.00 0.00 71 1017.4
20260506002517 78 224 2.6 8.7 0.00 0.00 0.00 72 1017.5
20260506001951 78 114 2.6 7.8 0.00 0.00 0.00 74 1017.5
20260506001647 78 138 2.6 7.8 0.00 0.00 0.00 74 1017.5
20260506000859 78 139 3.5 7.8 0.00 0.00 0.00 74 1017.5
20260506000332 78 107 2.6 7.8 0.00 0.00 0.00 75 1017.5
20260505235821 77 196 2.6 7.0 0.00 0.00 0.00 77 1017.6
20260505235542 77 195 1.7 5.2 0.00 0.00 0.00 78 1017.6
20260505234822 76 113 2.6 7.0 0.00 0.00 0.00 79 1017.7
20260505234541 76 204 2.6 7.0 0.00 0.00 0.00 79 1017.7
20260505234039 76 190 2.6 7.0 0.00 0.00 0.00 80 1017.8
20260505233317 75 116 2.6 7.0 0.00 0.00 0.00 80 1017.8
20260505232814 75 130 2.6 7.0 0.00 0.00 0.00 80 1017.9
20260505232315 75 110 3.5 7.0 0.00 0.00 0.00 80 1017.9
20260505231812 75 126 2.6 7.0 0.00 0.00 0.00 81 1017.8
20260505231313 75 108 1.7 7.0 0.00 0.00 0.00 83 1017.9
20260505230813 74 152 1.7 7.0 0.00 0.00 0.00 84 1017.9
20260505230307 74 113 1.7 7.0 0.00 0.00 0.00 85 1017.9
20260505225804 73 203 1.7 5.2 0.00 0.00 0.00 87 1017.9
20260505225306 73 195 2.6 5.2 0.00 0.00 0.00 88 1017.9
20260505224805 72 191 2.6 5.2 0.00 0.00 0.00 89 1018.0
20260505224304 71 212 2.6 5.2 0.00 0.00 0.00 91 1017.9
20260505223817 71 204 2.6 4.3 0.00 0.00 0.00 92 1018.0
20260505223306 70 217 2.6 4.3 0.00 0.00 0.00 93 1018.0
20260505222803 70 233 1.7 4.3 0.00 0.00 0.00 93 1017.9
20260505222527 69 261 1.7 4.3 0.00 0.00 0.00 94 1017.9
20260505221805 69 180 1.7 4.3 0.00 0.00 0.00 94 1017.8
20260505221235 69 180 1.7 5.2 0.00 0.00 0.00 94 1017.8
20260505220713 68 228 1.7 4.3 0.00 0.00 0.00 94 1017.9
20260505220217 68 221 1.7 4.3 0.00 0.00 0.00 95 1017.9
20260505215645 68 238 0.9 4.3 0.00 0.00 0.00 94 1017.8
20260505215150 68 206 0.9 3.5 0.00 0.00 0.00 94 1017.8
20260505214637 67 206 1.7 4.3 0.00 0.00 0.00 95 1017.8
20260505214133 67 201 0.9 4.3 0.00 0.00 0.00 94 1017.8
20260505213633 67 212 0.9 3.5 0.00 0.00 0.00 94 1017.7
20260505213353 67 212 0.9 3.5 0.00 0.00 0.00 95 1017.7
20260505212854 67 249 0.9 3.5 0.00 0.00 0.00 94 1017.6
20260505212357 66 249 0.9 3.5 0.00 0.00 0.00 94 1017.6
20260505211626 66 249 0.9 3.5 0.00 0.00 0.00 94 1017.6
20260505211127 66 249 0.9 2.6 0.00 0.00 0.00 94 1017.5
20260505210626 66 249 0.9 2.6 0.00 0.00 0.00 94 1017.3
20260505210127 66 249 0.9 2.6 0.00 0.00 0.00 94 1017.3
20260505205845 65 249 0.0 0.0 0.00 0.00 0.00 94 1017.3
20260505205122 66 249 0.0 0.0 0.00 0.00 0.00 94 1017.1
20260505204622 66 249 0.0 0.0 0.00 0.00 0.00 94 1017.1
20260505204121 66 249 0.0 0.0 0.00 0.00 0.00 94 1017.1
20260505203623 66 250 0.0 0.0 0.00 0.00 0.00 94 1016.9
20260505203106 66 249 0.0 0.0 0.00 0.00 0.00 94 1016.9
20260505202606 66 249 0.0 0.0 0.00 0.00 0.00 94 1016.9
20260505202100 66 249 0.0 0.0 0.00 0.00 0.00 94 1016.9
20260505201828 66 249 0.0 0.0 0.00 0.00 0.00 94 1016.8
20260505201059 66 250 0.0 0.0 0.00 0.00 0.00 94 1016.9
20260505200557 66 249 0.0 0.0 0.00 0.00 0.00 94 1016.8
20260505200109 66 249 0.0 1.7 0.00 0.00 0.00 94 1016.8
20260505195557 66 249 0.0 1.7 0.00 0.00 0.00 94 1016.7
20260505195055 66 249 0.0 1.7 0.00 0.00 0.00 94 1016.7
20260505194555 67 250 0.9 2.6 0.00 0.00 0.00 94 1016.6
20260505194058 67 249 0.0 2.6 0.00 0.00 0.00 94 1016.6
20260505193549 67 249 0.0 2.6 0.00 0.00 0.00 94 1016.6
20260505193050 67 249 0.0 2.6 0.00 0.00 0.00 94 1016.6
20260505192545 67 249 0.0 2.6 0.00 0.00 0.00 94 1016.6
20260505192050 67 249 0.0 2.6 0.00 0.00 0.00 94 1016.7
20260505191522 67 255 0.0 1.7 0.00 0.01 0.00 94 1016.6
20260505191022 67 239 0.0 0.0 0.00 0.01 0.00 94 1016.6
20260505190520 67 239 0.0 0.9 0.00 0.01 0.00 94 1016.6
20260505190247 67 239 0.0 0.9 0.00 0.01 0.00 94 1016.6
20260505185515 67 239 0.0 0.9 0.00 0.01 0.00 94 1016.6
20260505185014 67 239 0.0 1.7 0.00 0.01 0.00 94 1016.5
20260505184511 67 239 0.0 1.7 0.00 0.01 0.00 94 1016.5
20260505184011 67 239 0.0 2.6 0.00 0.01 0.00 94 1016.2
20260505183507 67 239 0.0 2.6 0.00 0.01 0.00 94 1016.2
20260505183021 67 239 0.0 1.7 0.00 0.01 0.00 94 1016.2
20260505182959 67 239 0.0 0.0 0.00 0.01 0.00 94 1016.2
20260505182006 67 239 0.0 0.0 0.00 0.01 0.00 94 1016.2
20260505181517 67 239 0.0 0.0 0.00 0.01 0.00 94 1016.1
20260505180958 67 239 0.0 0.0 0.00 0.01 0.00 94 1016.0
20260505180455 67 239 0.0 0.0 0.00 0.01 0.00 94 1016.0
20260505175955 67 239 0.0 0.9 0.00 0.01 0.00 94 1016.0
20260505175455 67 239 0.0 0.9 0.00 0.01 0.00 94 1016.1
20260505174935 67 239 0.0 0.0 0.00 0.01 0.00 94 1016.0
20260505174434 67 239 0.0 0.0 0.00 0.01 0.00 94 1016.1
20260505173912 67 239 0.0 0.0 0.00 0.01 0.00 93 1016.2
20260505173635 67 239 0.0 0.0 0.00 0.01 0.00 93 1016.2
20260505172907 67 239 0.0 1.7 0.00 0.01 0.00 93 1016.2
20260505172405 67 239 0.0 1.7 0.00 0.01 0.00 93 1016.2
20260505171902 67 239 0.0 1.7 0.00 0.01 0.00 93 1016.2
20260505171400 67 239 0.0 1.7 0.00 0.01 0.00 93 1016.3
20260505170911 67 239 0.0 0.0 0.00 0.01 0.00 93 1016.5
20260505170411 67 239 0.0 0.0 0.00 0.01 0.00 93 1016.6
20260505165854 67 239 0.0 3.5 0.00 0.01 0.00 93 1016.6
20260505165354 67 239 0.9 3.5 0.00 0.01 0.00 93 1016.6
20260505165110 67 239 0.9 3.5 0.00 0.01 0.00 93 1016.6
20260505164345 67 239 0.9 3.5 0.00 0.01 0.00 93 1016.6
20260505163842 67 175 0.0 0.0 0.00 0.01 0.00 93 1016.6
20260505163601 67 175 0.0 0.0 0.00 0.01 0.00 93 1016.5
20260505162829 67 175 0.0 0.0 0.00 0.01 0.00 93 1016.5
20260505162547 67 175 0.0 0.0 0.00 0.01 0.00 93 1016.6
20260505161800 67 175 0.0 0.0 0.00 0.01 0.00 93 1016.6
20260505161254 67 175 0.0 0.0 0.00 0.01 0.00 93 1016.7
20260505160752 67 175 0.0 1.7 0.00 0.01 0.00 93 1016.8
20260505160524 67 175 0.0 1.7 0.00 0.01 0.00 93 1016.8
20260505153234 68 175 0.0 0.9 0.00 0.01 0.00 93 1016.9
20260505152732 68 175 0.0 1.7 0.00 0.01 0.00 93 1017.1
20260505152231 68 175 0.0 1.7 0.00 0.01 0.00 93 1017.1
20260505151724 68 175 0.0 2.6 0.00 0.01 0.00 93 1017.1
20260505151222 68 175 0.9 2.6 0.00 0.01 0.00 93 1017.1
20260505150720 68 175 0.9 4.3 0.00 0.01 0.00 93 1017.0
20260505150449 68 160 0.9 4.3 0.00 0.01 0.00 94 1017.0